| time (UTC) | temp F | wind direction | speed MPH | gust MPH | rain 1hr in | rain 24hr in | rain mn in | humidity % | barometer mb |
| 20260902061532 | 58 | 308 | 5.0 | 10.0 | 0.00 | 0.00 | 0.00 | 75 | 1014.0 |
| 20260902054530 | 58 | 320 | 5.0 | 11.0 | 0.00 | 0.00 | 0.00 | 74 | 1014.0 |
| 20260902053146 | 58 | 302 | 4.0 | 10.0 | 0.00 | 0.00 | 0.00 | 74 | 1014.0 |
| 20260902051529 | 58 | 300 | 5.0 | 11.0 | 0.00 | 0.00 | 0.00 | 74 | 1013.7 |
| 20260902050029 | 58 | 299 | 5.0 | 8.0 | 0.00 | 0.00 | 0.00 | 74 | 1013.7 |
| 20260902044530 | 58 | 293 | 4.0 | 8.0 | 0.00 | 0.00 | 0.00 | 73 | 1013.6 |
| 20260902043026 | 59 | 288 | 6.0 | 11.0 | 0.00 | 0.00 | 0.00 | 73 | 1013.4 |
| 20260902041530 | 58 | 290 | 5.0 | 13.0 | 0.00 | 0.00 | 0.00 | 73 | 1013.4 |
| 20260902040029 | 59 | 293 | 4.0 | 9.0 | 0.00 | 0.00 | 0.00 | 72 | 1013.2 |
| 20260902034530 | 59 | 306 | 3.0 | 10.0 | 0.00 | 0.00 | 0.00 | 72 | 1013.0 |
| 20260902033029 | 59 | 313 | 4.0 | 10.0 | 0.00 | 0.00 | 0.00 | 72 | 1012.9 |
| 20260902031603 | 59 | 306 | 3.0 | 8.0 | 0.00 | 0.00 | 0.00 | 72 | 1012.9 |
| 20260902030029 | 59 | 315 | 3.0 | 5.0 | 0.00 | 0.00 | 0.00 | 71 | 1013.1 |
| 20260902021531 | 60 | 269 | 5.0 | 11.0 | 0.00 | 0.00 | 0.00 | 69 | 1012.8 |
| 20260902020031 | 61 | 284 | 4.0 | 10.0 | 0.00 | 0.00 | 0.00 | 68 | 1012.7 |
| 20260902014529 | 61 | 323 | 3.0 | 11.0 | 0.00 | 0.00 | 0.00 | 67 | 1012.9 |
| 20260902004533 | 63 | 305 | 4.0 | 11.0 | 0.00 | 0.00 | 0.00 | 64 | 1012.5 |
| 20260902003029 | 64 | 280 | 6.0 | 17.0 | 0.00 | 0.00 | 0.00 | 64 | 1012.2 |
| 20260902000031 | 63 | 319 | 8.0 | 18.0 | 0.00 | 0.00 | 0.00 | 66 | 1012.2 |
| 20260901234645 | 62 | 317 | 9.0 | 18.0 | 0.00 | 0.00 | 0.00 | 67 | 1012.3 |
| 20260901231534 | 64 | 312 | 8.0 | 20.0 | 0.00 | 0.00 | 0.00 | 65 | 1012.2 |
| 20260901230030 | 65 | 293 | 8.0 | 18.0 | 0.00 | 0.00 | 0.00 | 63 | 1012.2 |
| 20260901224534 | 66 | 296 | 11.0 | 23.0 | 0.00 | 0.00 | 0.00 | 62 | 1012.1 |
| 20260901223029 | 66 | 298 | 11.0 | 24.0 | 0.00 | 0.00 | 0.00 | 61 | 1012.0 |
| 20260901221530 | 66 | 301 | 12.0 | 27.0 | 0.00 | 0.00 | 0.00 | 61 | 1011.8 |
| 20260901220030 | 67 | 301 | 12.0 | 27.0 | 0.00 | 0.00 | 0.00 | 60 | 1011.6 |
| 20260901214606 | 67 | 302 | 13.0 | 27.0 | 0.00 | 0.00 | 0.00 | 58 | 1011.5 |
| 20260901213029 | 68 | 289 | 11.0 | 25.0 | 0.00 | 0.00 | 0.00 | 57 | 1011.4 |
| 20260901211531 | 65 | 313 | 9.0 | 20.0 | 0.00 | 0.00 | 0.00 | 64 | 1011.4 |
| 20260901204532 | 63 | 328 | 14.0 | 28.0 | 0.00 | 0.00 | 0.00 | 66 | 1011.9 |
| 20260901203030 | 65 | 317 | 13.0 | 25.0 | 0.00 | 0.00 | 0.00 | 65 | 1012.1 |
| 20260901201531 | 64 | 307 | 12.0 | 26.0 | 0.00 | 0.00 | 0.00 | 66 | 1012.0 |
| 20260901200032 | 64 | 312 | 14.0 | 25.0 | 0.00 | 0.00 | 0.00 | 65 | 1012.1 |
| 20260901194535 | 66 | 316 | 12.0 | 24.0 | 0.00 | 0.00 | 0.00 | 64 | 1012.3 |
| 20260901191533 | 64 | 311 | 9.0 | 18.0 | 0.00 | 0.00 | 0.00 | 67 | 1012.7 |
| 20260901190031 | 65 | 316 | 10.0 | 20.0 | 0.00 | 0.00 | 0.00 | 67 | 1012.7 |
| 20260901184532 | 64 | 320 | 9.0 | 17.0 | 0.00 | 0.00 | 0.00 | 68 | 1012.9 |
| 20260901183107 | 63 | 326 | 9.0 | 18.0 | 0.00 | 0.00 | 0.00 | 69 | 1013.0 |
| 20260901181530 | 63 | 335 | 7.0 | 18.0 | 0.00 | 0.00 | 0.00 | 70 | 1013.0 |
| 20260901180144 | 61 | 322 | 7.0 | 14.0 | 0.00 | 0.00 | 0.00 | 72 | 1013.2 |
| 20260901174603 | 60 | 301 | 6.0 | 14.0 | 0.00 | 0.00 | 0.00 | 73 | 1013.2 |
| 20260901173029 | 61 | 307 | 7.0 | 16.0 | 0.00 | 0.00 | 0.00 | 71 | 1013.2 |
| 20260901171528 | 61 | 277 | 4.0 | 11.0 | 0.00 | 0.00 | 0.00 | 72 | 1013.1 |
| 20260901170030 | 60 | 275 | 5.0 | 11.0 | 0.00 | 0.00 | 0.00 | 74 | 1013.1 |
| 20260901164527 | 59 | 304 | 3.0 | 9.0 | 0.00 | 0.00 | 0.00 | 76 | 1013.1 |
| 20260901163032 | 58 | 303 | 2.0 | 8.0 | 0.00 | 0.00 | 0.00 | 78 | 1013.0 |
| 20260901161532 | 57 | 299 | 4.0 | 9.0 | 0.00 | 0.00 | 0.00 | 80 | 1013.0 |
| 20260901160031 | 56 | 298 | 5.0 | 13.0 | 0.00 | 0.00 | 0.00 | 80 | 1012.9 |
| 20260901154530 | 56 | 282 | 5.0 | 10.0 | 0.00 | 0.00 | 0.00 | 80 | 1012.9 |
| 20260901153032 | 56 | 282 | 5.0 | 10.0 | 0.00 | 0.00 | 0.00 | 81 | 1012.9 |
| 20260901151532 | 55 | 275 | 6.0 | 13.0 | 0.00 | 0.00 | 0.00 | 83 | 1012.9 |
| 20260901150032 | 54 | 292 | 2.0 | 6.0 | 0.00 | 0.00 | 0.00 | 84 | 1012.7 |
| 20260901144531 | 54 | 141 | 1.0 | 4.0 | 0.00 | 0.00 | 0.00 | 84 | 1012.6 |
| 20260901143106 | 54 | 124 | 0.0 | 3.0 | 0.00 | 0.00 | 0.00 | 84 | 1012.6 |
| 20260901141530 | 54 | 4 | 2.0 | 4.0 | 0.00 | 0.00 | 0.00 | 83 | 1012.5 |
| 20260901140036 | 55 | 9 | 2.0 | 6.0 | 0.00 | 0.00 | 0.00 | 81 | 1012.3 |
| 20260901134530 | 55 | 354 | 1.0 | 3.0 | 0.00 | 0.00 | 0.00 | 80 | 1012.2 |
| 20260901133030 | 56 | 31 | 2.0 | 11.0 | 0.00 | 0.00 | 0.00 | 80 | 1012.0 |
| 20260901131529 | 56 | 99 | 2.0 | 6.0 | 0.00 | 0.00 | 0.00 | 80 | 1012.0 |
| 20260901130029 | 57 | 262 | 1.0 | 4.0 | 0.00 | 0.00 | 0.00 | 78 | 1011.8 |
| 20260901123031 | 58 | 192 | 2.0 | 7.0 | 0.00 | 0.00 | 0.00 | 77 | 1011.7 |
| 20260901121533 | 57 | 255 | 4.0 | 12.0 | 0.00 | 0.00 | 0.00 | 78 | 1011.8 |
| 20260901120107 | 56 | 305 | 5.0 | 10.0 | 0.00 | 0.00 | 0.00 | 80 | 1011.7 |
| 20260901114529 | 56 | 293 | 4.0 | 7.0 | 0.00 | 0.00 | 0.00 | 79 | 1011.8 |
| 20260901113040 | 57 | 317 | 2.0 | 4.0 | 0.00 | 0.00 | 0.00 | 79 | 1011.7 |
| 20260901111532 | 57 | 353 | 1.0 | 5.0 | 0.00 | 0.00 | 0.00 | 77 | 1011.7 |
| 20260901110030 | 57 | 302 | 2.0 | 4.0 | 0.00 | 0.00 | 0.00 | 76 | 1011.6 |
| 20260901104647 | 57 | 294 | 3.0 | 7.0 | 0.00 | 0.00 | 0.00 | 74 | 1011.8 |
| 20260901101608 | 58 | 293 | 2.0 | 6.0 | 0.00 | 0.00 | 0.00 | 65 | 1011.7 |
| 20260901093030 | 59 | 164 | 0.0 | 3.0 | 0.00 | 0.00 | 0.00 | 64 | 1011.8 |
| 20260901091607 | 58 | 249 | 1.0 | 5.0 | 0.00 | 0.00 | 0.00 | 64 | 1011.7 |
| 20260901090031 | 59 | 307 | 4.0 | 5.0 | 0.00 | 0.00 | 0.00 | 62 | 1011.5 |
| 20260901084531 | 59 | 298 | 4.0 | 5.0 | 0.00 | 0.00 | 0.00 | 61 | 1011.8 |
| 20260901083028 | 59 | 305 | 2.0 | 5.0 | 0.00 | 0.00 | 0.00 | 59 | 1011.9 |
| 20260901081533 | 59 | 271 | 3.0 | 6.0 | 0.00 | 0.00 | 0.00 | 59 | 1011.9 |
| 20260901080147 | 59 | 286 | 4.0 | 6.0 | 0.00 | 0.00 | 0.00 | 59 | 1011.8 |
| 20260901074607 | 60 | 283 | 2.0 | 4.0 | 0.00 | 0.00 | 0.00 | 58 | 1011.7 |
| 20260901073032 | 60 | 299 | 2.0 | 6.0 | 0.00 | 0.00 | 0.00 | 56 | 1011.6 |
| 20260901071529 | 61 | 290 | 4.0 | 5.0 | 0.00 | 0.00 | 0.00 | 54 | 1011.5 |
| 20260901070032 | 62 | 300 | 4.0 | 7.0 | 0.00 | 0.00 | 0.00 | 54 | 1011.5 |
| 20260901064532 | 62 | 284 | 6.0 | 7.0 | 0.00 | 0.00 | 0.00 | 54 | 1011.6 |
| 20260901063029 | 61 | 275 | 6.0 | 8.0 | 0.00 | 0.00 | 0.00 | 54 | 1011.8 |